Location: Martley
(52.2333°N, 2.3667°W)
Time: 21:56:03
(UTC+00:00)

H-2A R/B - Pass Details

Date: 11 December 2019
Orbit: 501 x 541 km, 97.3° (Epoch: 17 January)

Event Time Altitude Azimuth Distance (km) Brightness Sun altitude
Rises 07:06:34 0° 8° (N) 2,622 6.1 -8.8°
Reaches altitude 10° 07:08:42 10° 3° (N) 1,736 5.1 -8.5°
Maximum altitude 07:12:17 47° 289° (WNW) 690 2.9 -8.0°
Drops below altitude 10° 07:15:54 10° 216° (SW) 1,741 5.3 -7.5°
Sets 07:18:02 0° 210° (SSW) 2,630 6.3 -7.2°
